Regional Weather Roundup
Issued by NWS Sioux Falls, SD

Home | Current Version | Previous Version | Graphics & Text | Print | Product List | Glossary Off
Versions: 1 2 3 4 5 6 7 8 9 10 11 12 13 14 15 16 17 18 19 20 21 22 23 24 25 26 27 28 29 30 31 32 33 34 35 36 37 38 39 40 41 42 43 44 45 46 47 48 49 50

000
ASUS43 KFSD 271010
RWRFSD

WEATHER ROUNDUP FOR SE SOUTH DAKOTA/SW MINNESOTA/NW IOWA
NATIONAL WEATHER SERVICE SIOUX FALLS SD
400 AM CST TUE JAN 27 2015

NOTE: "FAIR" INDICATES FEW OR NO CLOUDS BELOW 12,000 FEET WITH NO
SIGNIFICANT WEATHER AND OR OBSTRUCTIONS TO VISIBILITY.


SDZ038>040-050-052>070-271100-
SOUTHEAST SOUTH DAKOTA

CITY           SKY/WX    TMP DP  RH WIND       PRES   REMARKS
CHAMBERLAIN    CLEAR     32  30  91 SE8       29.98F WCI  25
HURON          CLEAR     26  25  96 SE3       30.02F
MADISON        FAIR      28  28 100 E5        30.02F WCI  23
MITCHELL       CLEAR     29  28  96 S3        30.04F
SIOUX FALLS    CLEAR     26  24  92 CALM      30.04F
WINNER         FAIR      41  32  70 S12       29.97F
YANKTON        CLEAR     30  28  93 CALM      30.06F
$$

MNZ071-072-080-081-089-090-097-098-271100-
SOUTHWEST MINNESOTA

CITY           SKY/WX    TMP DP  RH WIND       PRES   REMARKS
FAIRMONT       CLEAR     28  25  86 NW9       30.06R WCI  20
JACKSON        CLOUDY    32  30  93 VRB5      30.06S WCI  27
LUVERNE        CLEAR     32  30  93 CALM      30.05F FOG
MARSHALL       CLOUDY    28  27  93 N5        30.08S WCI  23
MONTEVIDEO     CLOUDY    28  28 100 CALM      30.08S
PIPESTONE      CLEAR     30  28  93 CALM      30.03S FOG
REDWOOD FALLS  CLOUDY    31  28  89 CALM      30.07R
TRACY          FOG       30  30  99 NW5       30.06S VSB 3/4 WCI  25
WINDOM         CLOUDY    30  30 100 CALM      30.06S
WORTHINGTON    CLOUDY    30  28  93 N9        30.05F WCI  22
$$

IAZ001>003-012>014-020>022-031-032-NEZ013-014-SDZ071-271100-
NORTHWEST IOWA

CITY           SKY/WX    TMP DP  RH WIND       PRES   REMARKS
CHEROKEE       CLEAR     28  28 100 CALM      30.06F
DENISON        CLEAR     28  28 100 CALM      30.05S
ESTHERVILLE    CLEAR     30  28  92 NW7       30.06R WCI  23
LE MARS        CLEAR     28  28 100 CALM      30.06F
ORANGE CITY    CLEAR     36  30  80 CALM      30.05F
SHELDON        CLEAR     28  28 100 NE6       30.04F WCI  22
SIOUX CITY     CLEAR     28  27  96 CALM      30.07S
SPENCER        CLOUDY    33  30  88 N7        30.07R WCI  27
STORM LAKE     PTCLDY    30  28  93 N8        30.06S WCI  23
$$

ABBREVIATIONS USED IN REMARKS
   TC - TEMPERATURE IN CELSIUS
  WCI - WIND CHILL INDEX
   HX - HEAT INDEX
  VSB - VISIBILITY




USA.gov is the U.S. government's official web portal to all federal, state and local government web resources and services.